TimeAKDT,TemperatureF,Dew PointF,Humidity,Sea Level PressureIn,VisibilityMPH,Wind Direction,Wind SpeedMPH,Gust SpeedMPH,PrecipitationIn,Events,Conditions,WindDirDegrees,DateUTC
12:56 AM,36.0,32.0,86,29.52,10.0,ENE,25.3,38.0,N/A,,Overcast,60,2013-09-03 08:56:00
1:56 AM,34.9,32.0,89,29.51,10.0,ENE,23.0,31.1,N/A,,Overcast,60,2013-09-03 09:56:00
2:56 AM,34.9,32.0,89,29.49,9.0,ENE,25.3,34.5,0.00,,Overcast,60,2013-09-03 10:56:00
3:56 AM,35.6,32.0,87,29.46,8.0,NE,23.0,27.6,N/A,,Overcast,50,2013-09-03 11:56:00
4:11 AM,35.6,32.0,87,29.45,6.0,NE,23.0,31.1,0.00,,Overcast,50,2013-09-03 12:11:00
4:56 AM,34.0,32.0,92,29.46,4.0,NE,20.7,-,0.00,,Overcast,40,2013-09-03 12:56:00
5:32 AM,33.8,32.0,93,29.44,6.0,NE,21.9,26.5,0.01,,Overcast,50,2013-09-03 13:32:00
5:56 AM,34.0,32.0,92,29.46,5.0,NE,19.6,27.6,0.01,,Overcast,50,2013-09-03 13:56:00
6:21 AM,33.8,32.0,93,29.44,2.5,NE,20.7,26.5,0.00,Snow,Light Snow,40,2013-09-03 14:21:00
6:33 AM,33.8,32.0,93,29.44,4.0,NE,18.4,-,0.00,Snow,Light Snow,40,2013-09-03 14:33:00
6:42 AM,33.8,32.0,93,29.44,6.0,NE,19.6,28.8,0.00,Snow,Light Snow,40,2013-09-03 14:42:00
6:56 AM,33.8,32.0,93,29.43,7.0,NE,21.9,-,N/A,,Mostly Cloudy,40,2013-09-03 14:56:00
7:05 AM,33.8,32.0,93,29.43,9.0,NE,23.0,28.8,N/A,,Overcast,40,2013-09-03 15:05:00
7:56 AM,34.0,32.0,92,29.44,9.0,NE,23.0,-,N/A,,Overcast,40,2013-09-03 15:56:00
8:56 AM,34.0,32.0,92,29.43,10.0,NE,24.2,28.8,0.00,,Overcast,40,2013-09-03 16:56:00
9:04 AM,33.8,32.0,93,29.42,10.0,NE,24.2,29.9,N/A,,Overcast,50,2013-09-03 17:04:00
9:56 AM,34.9,32.0,89,29.42,10.0,NE,25.3,36.8,N/A,,Overcast,40,2013-09-03 17:56:00
10:56 AM,34.9,32.9,92,29.42,10.0,NE,23.0,32.2,0.00,,Overcast,50,2013-09-03 18:56:00
11:56 AM,36.0,32.9,89,29.42,10.0,NE,21.9,32.2,N/A,,Overcast,50,2013-09-03 19:56:00
12:56 PM,35.6,33.8,93,29.41,3.0,NE,23.0,28.8,N/A,,Overcast,50,2013-09-03 20:56:00
1:20 PM,37.4,35.6,93,29.40,2.0,NE,26.5,32.2,0.00,,Overcast,50,2013-09-03 21:20:00
1:37 PM,37.4,35.6,93,29.40,4.0,ENE,26.5,31.1,0.00,,Overcast,60,2013-09-03 21:37:00
1:56 PM,36.9,34.9,93,29.42,4.0,ENE,25.3,32.2,0.00,,Overcast,60,2013-09-03 21:56:00
2:17 PM,37.4,35.6,93,29.40,4.0,NE,25.3,29.9,N/A,,Overcast,50,2013-09-03 22:17:00
2:24 PM,37.4,35.6,93,29.40,3.0,ENE,20.7,29.9,N/A,,Overcast,60,2013-09-03 22:24:00
2:56 PM,36.9,34.9,93,29.41,4.0,NE,23.0,28.8,N/A,,Overcast,50,2013-09-03 22:56:00
3:56 PM,36.9,34.9,93,29.41,9.0,ENE,24.2,31.1,0.00,,Overcast,60,2013-09-03 23:56:00
4:33 PM,37.4,35.6,93,29.39,5.0,NE,25.3,31.1,N/A,,Overcast,50,2013-09-04 00:33:00
4:56 PM,36.9,34.9,93,29.41,5.0,NE,19.6,29.9,N/A,,Overcast,50,2013-09-04 00:56:00
5:37 PM,37.4,35.6,93,29.40,2.5,NE,20.7,27.6,0.00,,Overcast,50,2013-09-04 01:37:00
5:48 PM,37.4,35.6,93,29.40,3.0,NE,23.0,27.6,0.00,Rain,Light Rain,50,2013-09-04 01:48:00
5:56 PM,36.9,34.9,93,29.41,4.0,NE,18.4,27.6,0.00,Rain,Light Rain,50,2013-09-04 01:56:00
6:08 PM,37.4,35.6,93,29.39,8.0,NE,21.9,29.9,0.00,Rain,Light Rain,50,2013-09-04 02:08:00
6:56 PM,37.4,35.6,93,29.40,10.0,NE,23.0,-,N/A,,Overcast,50,2013-09-04 02:56:00
7:56 PM,36.9,34.9,93,29.41,10.0,NE,23.0,29.9,N/A,,Overcast,50,2013-09-04 03:56:00
8:56 PM,36.9,34.9,93,29.42,10.0,NE,21.9,-,N/A,,Overcast,50,2013-09-04 04:56:00
9:56 PM,35.6,33.8,93,29.42,3.0,NE,23.0,28.8,N/A,,Overcast,50,2013-09-04 05:56:00
10:15 PM,35.6,33.8,93,29.42,2.5,NE,19.6,29.9,N/A,,Overcast,50,2013-09-04 06:15:00
10:29 PM,35.6,33.8,93,29.43,4.0,NE,20.7,29.9,N/A,,Overcast,50,2013-09-04 06:29:00
10:56 PM,36.0,34.0,93,29.44,10.0,NE,23.0,29.9,N/A,,Overcast,50,2013-09-04 06:56:00
11:56 PM,34.9,34.0,97,29.45,10.0,NE,21.9,27.6,N/A,,Overcast,50,2013-09-04 07:56:00